Location: Mat�lon
(46.2791°N, 7.1028°E)
Time: 01:14:39
(UTC+00:00)

X-37B - Visible Passes

Search period start: 21 September 2021 00:00
Search period end: 01 October 2021 00:00
Orbit: 381 x 393 km, 45.0° (Epoch: 29 August)

Date Brightness Start Highest point End Pass type
(mag) Time Alt. Az. Time Alt. Az. Time Alt. Az.
21 Sep 2.9 04:19:09 10° SSW 04:21:23 18° SSE 04:23:38 10° ESE visible
22 Sep 3.4 03:22:47 11° SSE 03:23:15 11° SE 03:24:11 10° SE visible
23 Sep 2.2 03:59:30 18° SSW 04:01:03 27° SSE 04:03:48 10° E visible
24 Sep 3.2 03:03:52 16° SE 03:03:52 16° SE 03:05:05 10° ESE visible
24 Sep 1.0 04:36:10 11° WSW 04:39:05 54° SSE 04:42:11 10° E visible
25 Sep 1.3 03:40:29 38° S 03:40:47 39° SSE 03:43:46 10° E visible
26 Sep 3.7 02:44:46 13° E 02:44:46 13° E 02:45:16 10° E visible
26 Sep 0.7 04:17:04 22° WSW 04:18:54 66° S 04:22:02 10° E visible
27 Sep 1.7 03:21:20 40° ESE 03:21:20 40° ESE 03:23:39 10° E visible
27 Sep 0.7 04:53:56 10° W 04:57:05 68° S 05:00:14 10° ESE visible
28 Sep 0.5 03:57:54 45° WSW 03:58:43 72° S 04:01:53 10° E visible
29 Sep 3.0 03:02:12 22° E 03:02:12 22° E 03:03:31 10° E visible
29 Sep 0.8 04:34:29 15° W 04:36:54 57° S 04:40:01 10° ESE visible
30 Sep 0.8 03:38:49 63° SSE 03:38:49 63° SSE 03:41:42 10° ESE visible
